Hourly Weather Veselinovo

Today, 3 August, Monday

Time Temperature Precipitation Wind Pressure Humidity
00:00 +18°C° 0 mm 2 mps 758 mmHg 68%
01:00 +17°C° 0 mm 2 mps 758 mmHg 70%
02:00 +17°C° 0 mm 2 mps 759 mmHg 71%
03:00 +17°C° 0 mm 2 mps 759 mmHg 73%
04:00 +16°C° 0 mm 2 mps 759 mmHg 75%
05:00 +16°C° 0 mm 2 mps 759 mmHg 76%
06:00 +18°C° 0 mm 2 mps 759 mmHg 70%
07:00 +20°C° 0 mm 2 mps 759 mmHg 63%
08:00 +23°C° 0 mm 2 mps 760 mmHg 54%
09:00 +24°C° 0 mm 2 mps 759 mmHg 49%
10:00 +25°C° 0 mm 1 mps 759 mmHg 44%
11:00 +27°C° 0 mm 1 mps 759 mmHg 39%
12:00 +27°C° 0 mm 1 mps 759 mmHg 37%
13:00 +28°C° 0 mm 1 mps 759 mmHg 34%
14:00 +29°C° 0 mm 2 mps 759 mmHg 32%
15:00 +29°C° 0 mm 2 mps 758 mmHg 31%
16:00 +29°C° 0 mm 2 mps 758 mmHg 31%
17:00 +29°C° 0 mm 2 mps 758 mmHg 30%
18:00 +27°C° 0 mm 2 mps 758 mmHg 36%
19:00 +25°C° 0 mm 2 mps 758 mmHg 42%
20:00 +23°C° 0 mm 2 mps 758 mmHg 48%
21:00 +23°C° 0 mm 2 mps 758 mmHg 50%
22:00 +22°C° 0 mm 1 mps 758 mmHg 52%
23:00 +21°C° 0 mm 1 mps 758 mmHg 54%

Tomorrow, 4 August, Tuesday

Time Temperature Precipitation Wind Pressure Humidity
00:00 +21°C° 0 mm 1 mps 758 mmHg 54%
01:00 +21°C° 0 mm 1 mps 758 mmHg 55%
02:00 +20°C° 0 mm 1 mps 758 mmHg 56%
03:00 +20°C° 0 mm 1 mps 758 mmHg 57%
04:00 +20°C° 0 mm 1 mps 758 mmHg 59%
05:00 +18°C° 0 mm 2 mps 758 mmHg 60%
06:00 +20°C° 0 mm 2 mps 758 mmHg 56%
07:00 +24°C° 0 mm 3 mps 758 mmHg 51%
08:00 +26°C° 0 mm 3 mps 758 mmHg 47%
09:00 +27°C° 0 mm 4 mps 758 mmHg 43%
10:00 +28°C° 0 mm 4 mps 758 mmHg 38%
11:00 +30°C° 0 mm 4 mps 758 mmHg 34%
12:00 +32°C° 0 mm 4 mps 758 mmHg 32%
13:00 +32°C° 0 mm 4 mps 758 mmHg 30%
14:00 +33°C° 0 mm 4 mps 757 mmHg 28%
15:00 +33°C° 0 mm 4 mps 757 mmHg 28%
16:00 +33°C° 0 mm 4 mps 757 mmHg 28%
17:00 +33°C° 0 mm 3 mps 757 mmHg 29%
18:00 +30°C° 0 mm 3 mps 757 mmHg 34%
19:00 +28°C° 0 mm 2 mps 757 mmHg 40%
20:00 +26°C° 0 mm 2 mps 757 mmHg 45%
21:00 +25°C° 0 mm 2 mps 757 mmHg 48%
22:00 +24°C° 0 mm 1 mps 757 mmHg 50%
23:00 +23°C° 0 mm 1 mps 758 mmHg 52%

Day after tomorrow, 5 August, Wednesday

Time Temperature Precipitation Wind Pressure Humidity
00:00 +23°C° 0 mm 1 mps 758 mmHg 54%
01:00 +22°C° 0 mm 1 mps 758 mmHg 55%
02:00 +22°C° 0 mm 1 mps 758 mmHg 56%
03:00 +22°C° 0 mm 1 mps 758 mmHg 58%
04:00 +20°C° 0 mm 2 mps 758 mmHg 59%
05:00 +20°C° 0 mm 2 mps 758 mmHg 61%
06:00 +23°C° 0 mm 2 mps 758 mmHg 56%
07:00 +25°C° 0 mm 3 mps 758 mmHg 51%
08:00 +27°C° 0 mm 3 mps 758 mmHg 46%
09:00 +29°C° 0 mm 4 mps 759 mmHg 41%
10:00 +30°C° 0 mm 4 mps 759 mmHg 36%
11:00 +32°C° 0 mm 5 mps 759 mmHg 31%
12:00 +33°C° 0 mm 5 mps 758 mmHg 29%
13:00 +34°C° 0 mm 4 mps 758 mmHg 27%
14:00 +34°C° 0 mm 4 mps 758 mmHg 25%
15:00 +34°C° 0 mm 5 mps 758 mmHg 26%
16:00 +34°C° 0 mm 5 mps 758 mmHg 27%
17:00 +33°C° 0 mm 5 mps 758 mmHg 27%
18:00 +30°C° 0 mm 5 mps 758 mmHg 31%
19:00 +28°C° 0 mm 4 mps 758 mmHg 34%
20:00 +27°C° 0 mm 3 mps 758 mmHg 38%
21:00 +26°C° 0 mm 3 mps 758 mmHg 41%
22:00 +25°C° 0 mm 3 mps 759 mmHg 43%
23:00 +24°C° 0 mm 3 mps 759 mmHg 46%

6 August, Thursday

Time Temperature Precipitation Wind Pressure Humidity
00:00 +22°C° 0 mm 3 mps 759 mmHg 48%
01:00 +22°C° 0 mm 3 mps 759 mmHg 51%
02:00 +21°C° 0 mm 3 mps 759 mmHg 53%
03:00 +21°C° 0 mm 4 mps 759 mmHg 56%
04:00 +20°C° 0 mm 4 mps 759 mmHg 59%
05:00 +20°C° 0 mm 4 mps 759 mmHg 62%
06:00 +22°C° 0 mm 4 mps 759 mmHg 59%
07:00 +25°C° 0 mm 5 mps 760 mmHg 55%
08:00 +26°C° 0 mm 5 mps 760 mmHg 51%
09:00 +28°C° 0 mm 5 mps 760 mmHg 46%
10:00 +30°C° 0 mm 5 mps 760 mmHg 40%
11:00 +33°C° 0 mm 5 mps 760 mmHg 35%
12:00 +34°C° 0 mm 6 mps 760 mmHg 33%
13:00 +34°C° 0 mm 6 mps 759 mmHg 32%
14:00 +35°C° 0 mm 6 mps 759 mmHg 31%
15:00 +35°C° 0 mm 6 mps 759 mmHg 31%
16:00 +35°C° 0 mm 6 mps 759 mmHg 31%
17:00 +34°C° 0 mm 6 mps 759 mmHg 32%
18:00 +33°C° 0 mm 6 mps 759 mmHg 36%
19:00 +30°C° 0 mm 5 mps 759 mmHg 40%
20:00 +28°C° 0 mm 5 mps 759 mmHg 45%
21:00 +27°C° 0 mm 5 mps 760 mmHg 47%
22:00 +26°C° 0 mm 5 mps 760 mmHg 50%
23:00 +25°C° 0 mm 5 mps 760 mmHg 52%

7 August, Friday

Time Temperature Precipitation Wind Pressure Humidity
00:00 +25°C° 0 mm 5 mps 760 mmHg 55%
01:00 +23°C° 0 mm 5 mps 760 mmHg 58%
02:00 +22°C° 0 mm 4 mps 760 mmHg 61%
03:00 +22°C° 0 mm 4 mps 760 mmHg 64%
04:00 +21°C° 0 mm 4 mps 760 mmHg 68%
05:00 +21°C° 0 mm 4 mps 760 mmHg 71%
06:00 +22°C° 0 mm 5 mps 760 mmHg 65%
07:00 +24°C° 0 mm 6 mps 760 mmHg 59%
08:00 +27°C° 0 mm 6 mps 760 mmHg 53%
09:00 +29°C° 0 mm 6 mps 760 mmHg 48%
10:00 +30°C° 0 mm 6 mps 760 mmHg 44%
11:00 +33°C° 0 mm 6 mps 760 mmHg 39%
12:00 +34°C° 0 mm 6 mps 760 mmHg 37%
13:00 +35°C° 0 mm 6 mps 759 mmHg 34%
14:00 +35°C° 0 mm 6 mps 759 mmHg 31%
15:00 +35°C° 0 mm 6 mps 759 mmHg 31%
16:00 +35°C° 0 mm 6 mps 758 mmHg 31%
17:00 +35°C° 0 mm 6 mps 758 mmHg 31%
18:00 +33°C° 0 mm 6 mps 758 mmHg 36%
19:00 +30°C° 0 mm 6 mps 758 mmHg 40%
20:00 +28°C° 0 mm 5 mps 758 mmHg 45%
21:00 +27°C° 0 mm 5 mps 758 mmHg 46%
22:00 +27°C° 0 mm 5 mps 758 mmHg 48%
23:00 +26°C° 0 mm 5 mps 758 mmHg 49%

8 August, Saturday

Time Temperature Precipitation Wind Pressure Humidity
00:00 +25°C° 0 mm 5 mps 758 mmHg 52%
01:00 +23°C° 0 mm 4 mps 758 mmHg 55%
02:00 +23°C° 0 mm 4 mps 758 mmHg 59%
03:00 +22°C° 0 mm 4 mps 758 mmHg 62%
04:00 +21°C° 0 mm 4 mps 758 mmHg 65%
05:00 +21°C° 0 mm 4 mps 758 mmHg 69%
06:00 +23°C° 0 mm 4 mps 758 mmHg 64%
07:00 +26°C° 0 mm 5 mps 758 mmHg 58%
08:00 +27°C° 0 mm 5 mps 758 mmHg 53%
09:00 +29°C° 0 mm 5 mps 758 mmHg 48%
10:00 +32°C° 0 mm 6 mps 757 mmHg 43%
11:00 +33°C° 0 mm 6 mps 757 mmHg 38%
12:00 +34°C° 0 mm 6 mps 757 mmHg 36%
13:00 +35°C° 0 mm 6 mps 756 mmHg 34%
14:00 +35°C° 0 mm 6 mps 756 mmHg 32%
15:00 +35°C° 0 mm 6 mps 756 mmHg 34%
16:00 +34°C° 0 mm 6 mps 755 mmHg 35%
17:00 +34°C° 0 mm 6 mps 755 mmHg 36%
18:00 +33°C° 0 mm 6 mps 755 mmHg 41%
19:00 +30°C° 0 mm 5 mps 755 mmHg 45%
20:00 +29°C° 0 mm 5 mps 755 mmHg 50%
21:00 +28°C° 0 mm 5 mps 755 mmHg 52%
22:00 +27°C° 0 mm 5 mps 756 mmHg 54%
23:00 +26°C° 0 mm 5 mps 756 mmHg 55%
Show more